Ravenna, OH

9:42 PM EDT on March 28, 2017 (GMT -0400)
Ravenna

Weather History for KPOV - December, 2012

Change the Weather History Date:

Monday, December 17, 2012

  Actual Average (KCAK) Record (KCAK)
Temperature  
Mean Temperature 46 °F -  
Max Temperature 50 °F 35 °F 59 °F (1984)
Min Temperature 41 °F 22 °F -9 °F (1951)
Degree Days  
Heating Degree Days 20    
Moisture  
Dew Point 42 °F    
Average Humidity 87    
Maximum Humidity 100    
Minimum Humidity 76    
Precipitation  
Precipitation 0.00 in - - ()
Sea Level Pressure  
Sea Level Pressure 29.66 in    
Wind  
Wind Speed 4 mph (WSW)    
Max Wind Speed 8 mph    
Max Gust Speed -    
Visibility 8 miles    
Events Rain    
Averages and records for this station are not official NWS values.
T = Trace of Precipitation, MM = Missing Value Source: NWS Daily Summary

Daily Weather History Graph

Daily Weather History Graph

Search for Another Location

Airport or City:

Trip Planner

Search our weather history database for the weather conditions in past years. The results will help you decide how hot, cold, wet, or windy it might be!

Date:

Astronomy

Dec. 17, 2012 Rise Set
Actual Time 7:45 AM EST 4:57 PM EST
Civil Twilight 7:13 AM EST 5:28 PM EST
Nautical Twilight 6:39 AM EST 6:03 PM EST
Astronomical Twilight 6:05 AM EST 6:37 PM EST
Moon 10:50 AM EST (12/17) 10:20 PM EST (12/17)
Length of Visible Light 10h 15m
Length of Day
9h 12m
Waxing Crescent, 24% of the Moon is Illuminated
Dec 17
Waxing Crescent
Dec 20
First Quarter
Dec 28
Full
Jan 4
Last Quarter
Jan 11
New

Hourly Weather History & Observations

Time (EST) Temp. Windchill Dew Point Humidity Pressure Visibility Wind Dir Wind Speed Gust Speed Precip Events Conditions
12:16 AM 50.0 °F - 44.8 °F 82% 29.70 in 10.0 mi WSW 6.9 mph - N/A   Scattered Clouds
12:56 AM 48.6 °F - 43.9 °F 84% 29.71 in 10.0 mi WSW 5.8 mph - N/A   Mostly Cloudy
1:16 AM 47.8 °F - 43.7 °F 86% 29.70 in 10.0 mi WSW 4.6 mph - N/A   Scattered Clouds
1:35 AM 47.8 °F - 43.2 °F 84% 29.71 in 10.0 mi WSW 5.8 mph - N/A   Scattered Clouds
1:56 AM 48.2 °F - 43.5 °F 84% 29.71 in 10.0 mi WSW 6.9 mph - N/A   Mostly Cloudy
2:16 AM 48.2 °F - 43.3 °F 83% 29.71 in 10.0 mi SW 4.6 mph - N/A   Overcast
2:35 AM 47.5 °F - 43.0 °F 84% 29.70 in 10.0 mi SW 5.8 mph - N/A   Mostly Cloudy
2:55 AM 45.1 °F - 43.2 °F 93% 29.70 in 10.0 mi Calm Calm - N/A   Scattered Clouds
3:16 AM 45.7 °F - 44.4 °F 95% 29.70 in 10.0 mi Calm Calm - N/A   Clear
3:35 AM 44.1 °F 42.5 °F 44.2 °F 100% 29.71 in 7.0 mi WSW 3.5 mph - N/A   Clear
3:55 AM - - - N/A% 29.71 in 7.0 mi WNW 4.6 mph - N/A   Mostly Cloudy
4:16 AM 44.1 °F 40.1 °F 44.2 °F 100% 29.71 in 7.0 mi West 6.9 mph - N/A   Overcast
4:35 AM 45.5 °F 41.8 °F 45.3 °F 99% 29.71 in 7.0 mi West 6.9 mph - N/A   Overcast
4:56 AM 45.5 °F 41.8 °F 43.7 °F 93% 29.71 in 10.0 mi WSW 6.9 mph - N/A   Overcast
5:16 AM 45.5 °F 41.3 °F 42.8 °F 90% 29.71 in 10.0 mi West 8.1 mph - N/A   Overcast
5:35 AM 44.8 °F 41.0 °F 42.4 °F 91% 29.71 in 10.0 mi West 6.9 mph - N/A   Mostly Cloudy
5:55 AM 43.5 °F 40.9 °F 43.0 °F 98% 29.72 in 10.0 mi SW 4.6 mph - N/A   Mostly Cloudy
6:16 AM 44.6 °F - 42.4 °F 92% 29.73 in 10.0 mi Calm Calm - N/A   Overcast
6:35 AM 44.2 °F 42.7 °F 42.1 °F 92% 29.73 in 10.0 mi SW 3.5 mph - N/A   Overcast
6:55 AM 44.6 °F 43.1 °F 41.5 °F 89% 29.72 in 10.0 mi SW 3.5 mph - N/A   Overcast
7:16 AM 43.9 °F - 41.5 °F 91% 29.72 in 10.0 mi Calm Calm - N/A   Overcast
7:35 AM 43.7 °F - 41.5 °F 92% 29.73 in 10.0 mi Calm Calm - N/A   Overcast
7:56 AM 44.1 °F 40.8 °F 41.0 °F 89% 29.73 in 10.0 mi WSW 5.8 mph - N/A   Mostly Cloudy
8:16 AM 44.1 °F 42.5 °F 41.0 °F 89% 29.73 in 7.0 mi West 3.5 mph - N/A   Scattered Clouds
8:35 AM 43.7 °F - 41.2 °F 91% 29.73 in 7.0 mi Calm Calm - N/A   Scattered Clouds
8:55 AM 42.8 °F - 41.9 °F 97% 29.73 in 7.0 mi Calm Calm - N/A   Scattered Clouds
9:16 AM 43.5 °F - 42.8 °F 97% 29.73 in 7.0 mi Calm Calm - N/A   Overcast
9:35 AM 44.6 °F - 41.5 °F 89% 29.74 in 7.0 mi Calm Calm - N/A   Overcast
9:55 AM 44.8 °F - 42.1 °F 90% 29.73 in 7.0 mi Calm Calm - N/A   Overcast
10:16 AM 45.3 °F - 42.6 °F 90% 29.73 in 7.0 mi Calm Calm - N/A   Overcast
10:35 AM 45.5 °F - 42.4 °F 89% 29.73 in 7.0 mi Calm Calm - N/A   Overcast
10:55 AM 45.1 °F - 41.7 °F 88% 29.73 in 7.0 mi Calm Calm - N/A   Overcast
11:16 AM 45.5 °F - 41.5 °F 86% 29.72 in 7.0 mi Calm Calm - N/A   Overcast
11:35 AM 46.6 °F - 41.5 °F 83% 29.70 in 7.0 mi Calm Calm - N/A   Overcast
11:56 AM 47.5 °F - 41.5 °F 80% 29.69 in 7.0 mi Calm Calm - N/A   Overcast
12:16 PM 46.9 °F - 41.0 °F 80% 29.67 in 7.0 mi Calm Calm - N/A   Overcast
12:35 PM 47.5 °F - 40.8 °F 78% 29.66 in 7.0 mi Calm Calm - N/A   Overcast
12:55 PM 47.8 °F - 41.2 °F 78% 29.66 in 7.0 mi Calm Calm - N/A   Mostly Cloudy
1:16 PM 48.6 °F - 41.4 °F 76% 29.65 in 7.0 mi Calm Calm - N/A   Overcast
1:35 PM 48.2 °F - 41.2 °F 77% 29.64 in 7.0 mi Calm Calm - N/A   Overcast
1:55 PM 48.6 °F - 41.7 °F 77% 29.64 in 7.0 mi SSE 3.5 mph - N/A   Overcast
2:16 PM 48.2 °F - 41.4 °F 77% 29.63 in 7.0 mi Calm Calm - N/A   Overcast
2:35 PM 48.4 °F - 41.7 °F 78% 29.61 in 7.0 mi East 3.5 mph - N/A   Overcast
2:56 PM 48.0 °F - 41.5 °F 78% 29.61 in 7.0 mi ESE 4.6 mph - N/A   Overcast
3:16 PM 47.7 °F - 41.7 °F 80% 29.61 in 10.0 mi ESE 3.5 mph - N/A   Overcast
3:35 PM 47.5 °F - 41.4 °F 79% 29.61 in 7.0 mi ESE 3.5 mph - N/A   Overcast
3:55 PM 47.3 °F - 41.4 °F 80% 29.61 in 7.0 mi Calm Calm - N/A   Drizzle
4:16 PM 46.8 °F - 42.4 °F 85% 29.59 in 7.0 mi East 4.6 mph - N/A Rain Light Rain
4:35 PM 46.4 °F 43.5 °F 43.2 °F 88% 29.59 in 5.0 mi East 5.8 mph - N/A   Overcast
4:55 PM 46.0 °F 41.9 °F 43.7 °F 92% 29.58 in 7.0 mi East 8.1 mph - N/A   Overcast
7:35 PM 45.5 °F 42.5 °F 41.4 °F 85% 29.57 in 10.0 mi NNE 5.8 mph - N/A   Overcast
7:55 PM 44.8 °F 40.4 °F 40.6 °F 85% 29.56 in 10.0 mi NE 8.1 mph - N/A   Overcast
8:16 PM 44.1 °F 40.8 °F 40.1 °F 86% 29.56 in 10.0 mi NNE 5.8 mph - N/A   Overcast
8:35 PM 43.9 °F 41.3 °F 40.1 °F 87% 29.56 in 10.0 mi NE 4.6 mph - N/A   Overcast
8:56 PM 43.2 °F 39.0 °F 39.2 °F 86% 29.55 in 10.0 mi NE 6.9 mph - N/A   Overcast
9:15 PM 42.8 °F 38.0 °F 39.2 °F 87% 29.55 in 10.0 mi East 8.1 mph - N/A   Overcast
9:36 PM 41.9 °F 39.0 °F 38.1 °F 86% 29.54 in 10.0 mi NE 4.6 mph - N/A   Overcast
9:55 PM 41.9 °F 37.5 °F 37.9 °F 86% 29.53 in 10.0 mi ENE 6.9 mph - N/A   Overcast
10:16 PM 41.5 °F 36.4 °F 37.9 °F 87% 29.53 in 10.0 mi NE 8.1 mph - N/A   Overcast
10:35 PM 41.4 °F 38.4 °F 37.8 °F 87% 29.53 in 10.0 mi NE 4.6 mph - N/A   Overcast
10:56 PM 41.4 °F 37.6 °F 38.1 °F 88% 29.53 in 7.0 mi NE 5.8 mph - N/A   Overcast
11:15 PM 41.2 °F - 38.3 °F 89% 29.52 in 7.0 mi Calm Calm - N/A Rain Light Rain
11:36 PM 41.2 °F - 38.5 °F 90% 29.52 in 7.0 mi Calm Calm - N/A Rain Light Rain
11:55 PM 41.0 °F 39.0 °F 40.1 °F 97% 29.52 in 7.0 mi NNE 3.5 mph - N/A Rain Rain